TimeEST,TemperatureF,Dew PointF,Humidity,Sea Level PressureIn,VisibilityMPH,Wind Direction,Wind SpeedMPH,Gust SpeedMPH,PrecipitationIn,Events,Conditions,WindDirDegrees,DateUTC
12:03 AM,77.0,71.6,83,30.12,10.0,ESE,15.0,-,N/A,,Mostly Cloudy,120,2013-01-09 05:03:00
12:26 AM,77.0,71.6,83,30.12,10.0,ESE,15.0,-,N/A,,Scattered Clouds,120,2013-01-09 05:26:00
12:35 AM,77.0,71.6,83,30.12,10.0,ESE,16.1,-,N/A,,Mostly Cloudy,120,2013-01-09 05:35:00
12:43 AM,77.0,71.6,83,30.12,10.0,ESE,13.8,-,N/A,,Scattered Clouds,120,2013-01-09 05:43:00
12:53 AM,77.0,71.1,82,30.12,10.0,ESE,15.0,-,N/A,,Scattered Clouds,120,2013-01-09 05:53:00
1:53 AM,77.0,71.1,82,30.12,10.0,ESE,16.1,-,N/A,,Mostly Cloudy,110,2013-01-09 06:53:00
2:53 AM,77.0,71.1,82,30.13,10.0,ESE,15.0,-,N/A,,Mostly Cloudy,110,2013-01-09 07:53:00
3:53 AM,77.0,71.1,82,30.14,10.0,ESE,13.8,-,N/A,,Mostly Cloudy,110,2013-01-09 08:53:00
4:53 AM,77.0,71.1,82,30.14,10.0,ESE,13.8,-,N/A,,Mostly Cloudy,120,2013-01-09 09:53:00
5:53 AM,77.0,72.0,84,30.15,10.0,East,11.5,-,N/A,,Partly Cloudy,100,2013-01-09 10:53:00
6:53 AM,77.0,72.0,84,30.16,10.0,ESE,15.0,-,N/A,,Partly Cloudy,110,2013-01-09 11:53:00
7:53 AM,77.0,71.6,83,30.18,10.0,ESE,15.0,-,N/A,,Clear,110,2013-01-09 12:53:00
8:53 AM,78.1,71.1,79,30.21,10.0,ESE,17.3,-,N/A,,Clear,110,2013-01-09 13:53:00
9:53 AM,79.0,72.0,79,30.22,10.0,ESE,13.8,-,N/A,,Clear,110,2013-01-09 14:53:00
10:53 AM,80.1,71.1,74,30.21,10.0,ESE,18.4,-,N/A,,Clear,120,2013-01-09 15:53:00
11:53 AM,81.0,71.1,72,30.19,10.0,ESE,18.4,-,N/A,,Clear,120,2013-01-09 16:53:00
12:53 PM,81.0,71.1,72,30.17,10.0,ESE,16.1,-,N/A,,Partly Cloudy,110,2013-01-09 17:53:00
1:53 PM,81.0,71.1,72,30.16,10.0,ESE,18.4,-,N/A,,Partly Cloudy,120,2013-01-09 18:53:00
2:53 PM,81.0,71.1,72,30.15,10.0,ESE,16.1,-,N/A,,Clear,120,2013-01-09 19:53:00
3:53 PM,80.1,72.0,76,30.15,10.0,ESE,16.1,23.0,N/A,,Partly Cloudy,110,2013-01-09 20:53:00
4:53 PM,79.0,71.1,77,30.16,10.0,ESE,18.4,-,N/A,,Partly Cloudy,110,2013-01-09 21:53:00
5:53 PM,78.1,71.1,79,30.18,9.0,East,13.8,-,N/A,,Partly Cloudy,100,2013-01-09 22:53:00
6:53 PM,78.1,72.0,81,30.19,10.0,ESE,16.1,-,N/A,,Clear,110,2013-01-09 23:53:00
7:53 PM,77.0,72.0,84,30.20,10.0,East,15.0,23.0,N/A,,Clear,100,2013-01-10 00:53:00
8:53 PM,77.0,71.1,82,30.21,10.0,ESE,17.3,-,N/A,,Clear,110,2013-01-10 01:53:00
9:53 PM,77.0,71.1,82,30.21,10.0,East,17.3,-,N/A,,Clear,100,2013-01-10 02:53:00
10:53 PM,77.0,72.0,84,30.22,10.0,ESE,17.3,-,N/A,,Partly Cloudy,110,2013-01-10 03:53:00
11:53 PM,77.0,71.1,82,30.22,10.0,ESE,19.6,-,N/A,,Clear,110,2013-01-10 04:53:00